TimeEDT,TemperatureF,Dew PointF,Humidity,Sea Level PressureIn,VisibilityMPH,Wind Direction,Wind SpeedMPH,Gust SpeedMPH,PrecipitationIn,Events,Conditions,WindDirDegrees,DateUTC
12:54 AM,66.9,66.0,97,30.01,5.0,Calm,Calm,-,N/A,,Clear,0,2013-05-22 04:54:00
1:32 AM,64.4,64.4,100,30.02,2.0,Calm,Calm,-,N/A,,Partly Cloudy,0,2013-05-22 05:32:00
1:41 AM,64.4,64.4,100,30.02,1.5,South,3.5,-,N/A,,Scattered Clouds,170,2013-05-22 05:41:00
1:46 AM,64.4,64.4,100,30.02,2.0,Calm,Calm,-,N/A,,Mostly Cloudy,0,2013-05-22 05:46:00
1:54 AM,66.0,64.9,96,30.00,3.0,SW,3.5,-,N/A,,Mostly Cloudy,220,2013-05-22 05:54:00
2:18 AM,66.2,66.2,100,30.02,2.0,Calm,Calm,-,N/A,,Overcast,0,2013-05-22 06:18:00
2:26 AM,66.2,66.2,100,30.02,1.0,Calm,Calm,-,N/A,,Overcast,0,2013-05-22 06:26:00
2:34 AM,66.2,66.2,100,30.02,0.5,Calm,Calm,-,N/A,Fog,Fog,0,2013-05-22 06:34:00
2:43 AM,66.2,66.2,100,30.01,0.2,South,4.6,-,N/A,Fog,Fog,190,2013-05-22 06:43:00
2:54 AM,66.0,66.0,100,29.99,0.2,SSW,3.5,-,N/A,Fog,Fog,200,2013-05-22 06:54:00
3:54 AM,66.0,66.0,100,29.97,0.2,SSW,3.5,-,N/A,Fog,Fog,200,2013-05-22 07:54:00
4:20 AM,66.2,66.2,100,29.98,0.5,South,5.8,-,N/A,Fog,Fog,190,2013-05-22 08:20:00
4:39 AM,64.4,64.4,100,29.98,1.5,South,4.6,-,N/A,,Overcast,190,2013-05-22 08:39:00
4:54 AM,66.0,66.0,100,29.97,1.2,South,3.5,-,N/A,,Overcast,190,2013-05-22 08:54:00
5:19 AM,66.2,66.2,100,29.98,2.5,South,3.5,-,N/A,,Overcast,180,2013-05-22 09:19:00
5:43 AM,66.2,66.2,100,29.98,3.0,South,4.6,-,N/A,,Overcast,190,2013-05-22 09:43:00
5:54 AM,64.9,64.9,100,29.97,3.0,South,4.6,-,N/A,,Overcast,190,2013-05-22 09:54:00
6:54 AM,64.9,64.9,100,29.99,3.0,South,4.6,-,N/A,,Overcast,190,2013-05-22 10:54:00
7:54 AM,66.0,66.0,100,30.00,4.0,South,4.6,-,N/A,,Overcast,190,2013-05-22 11:54:00
8:30 AM,66.2,66.2,100,30.02,7.0,SSW,4.6,-,N/A,,Overcast,200,2013-05-22 12:30:00
8:45 AM,68.0,66.2,94,30.03,8.0,Variable,3.5,-,N/A,,Overcast,0,2013-05-22 12:45:00
8:54 AM,70.0,66.0,87,30.02,10.0,WSW,5.8,-,N/A,,Overcast,240,2013-05-22 12:54:00
9:31 AM,71.6,66.2,83,30.03,10.0,South,5.8,-,N/A,,Scattered Clouds,190,2013-05-22 13:31:00
9:46 AM,71.6,66.2,83,30.03,10.0,WSW,6.9,-,N/A,,Mostly Cloudy,240,2013-05-22 13:46:00
9:54 AM,72.0,66.0,81,30.01,10.0,Calm,Calm,-,N/A,,Scattered Clouds,0,2013-05-22 13:54:00
10:54 AM,75.9,66.9,74,30.01,10.0,South,4.6,-,N/A,,Partly Cloudy,190,2013-05-22 14:54:00
11:54 AM,79.0,68.0,69,30.00,10.0,Variable,4.6,-,N/A,,Clear,0,2013-05-22 15:54:00
12:54 PM,80.1,66.9,64,29.99,10.0,Variable,5.8,-,N/A,,Clear,0,2013-05-22 16:54:00
1:54 PM,82.0,66.0,58,29.97,10.0,South,10.4,-,N/A,,Scattered Clouds,180,2013-05-22 17:54:00
2:54 PM,82.9,64.9,54,29.95,10.0,Variable,5.8,-,N/A,,Partly Cloudy,0,2013-05-22 18:54:00
3:54 PM,82.9,66.0,56,29.92,10.0,SSE,8.1,-,N/A,,Clear,160,2013-05-22 19:54:00
4:54 PM,82.0,66.9,60,29.90,10.0,SSE,9.2,16.1,N/A,,Partly Cloudy,160,2013-05-22 20:54:00
5:54 PM,82.0,64.9,56,29.88,10.0,SSE,9.2,16.1,N/A,,Clear,160,2013-05-22 21:54:00
6:54 PM,81.0,64.9,58,29.90,10.0,Variable,6.9,-,N/A,,Clear,0,2013-05-22 22:54:00
7:54 PM,77.0,64.9,66,29.92,10.0,Calm,Calm,-,N/A,,Partly Cloudy,0,2013-05-22 23:54:00
8:54 PM,72.0,60.1,66,29.95,10.0,Variable,4.6,-,N/A,,Overcast,0,2013-05-23 00:54:00
9:54 PM,69.1,60.1,73,29.96,10.0,Calm,Calm,-,N/A,,Mostly Cloudy,0,2013-05-23 01:54:00
10:54 PM,66.0,61.0,84,29.95,10.0,Calm,Calm,-,N/A,,Mostly Cloudy,0,2013-05-23 02:54:00
11:37 PM,69.8,60.8,73,29.97,10.0,Calm,Calm,-,N/A,Thunderstorm,Overcast,0,2013-05-23 03:37:00
11:52 PM,66.2,60.8,83,29.98,10.0,Calm,Calm,-,0.00,Rain,Light Rain,0,2013-05-23 03:52:00
11:54 PM,66.9,61.0,81,29.96,10.0,East,4.6,-,0.00,Rain,Light Rain,90,2013-05-23 03:54:00